period_start,C,m1,H,J0,J1,J2,J3,J4,J5,JA,JB,JC,JD,JJ,JK,JN,#
2016-10-19 00:03:07,0.00,0.81,0.00,20.85,26.49,29.95,14.75,44.67,1024.38,2034.98,3200.99,2915.84,3296.00,599.81,604.71,38.69,0000 0000 0000 0000 000000
2016-10-19 00:08:08,0.03,0.81,0.00,20.85,26.47,29.94,14.87,44.82,1024.36,2034.98,3200.46,2915.18,3295.99,600.54,605.39,38.74,0000 0000 0000 0000 000000
2016-10-19 00:13:09,0.00,0.81,0.00,20.86,26.47,29.95,14.83,44.43,1024.33,2034.97,3200.07,2915.02,3295.96,600.12,605.02,38.79,0000 0000 0000 0000 000000
2016-10-19 00:18:10,0.00,0.81,0.00,20.83,26.47,29.93,14.76,44.32,1024.32,2034.98,3200.02,2915.01,3295.94,599.78,604.68,38.84,0000 0000 0000 0000 000000
2016-10-19 00:23:12,0.01,0.81,0.00,20.84,26.46,29.91,14.76,44.76,1024.27,2034.99,3199.99,2915.00,3295.46,600.07,605.01,38.89,0000 0000 0000 0000 000000
2016-10-19 00:28:13,0.00,0.81,0.00,20.86,26.45,29.94,14.75,44.33,1024.32,2034.99,3199.97,2915.00,3295.23,599.86,604.68,38.94,0000 0000 0000 0000 000000
2016-10-19 00:33:15,0.00,0.81,0.00,20.87,26.45,29.94,14.77,44.48,1024.37,2034.99,3199.87,2915.00,3295.12,600.36,605.26,38.99,0000 0000 0000 0000 000000
2016-10-19 00:38:16,0.01,0.81,0.00,20.85,26.45,29.89,14.79,44.43,1024.35,2034.99,3199.14,2914.98,3295.02,599.86,604.75,39.04,0000 0000 0000 0000 000000
2016-10-19 00:43:17,0.01,0.81,0.00,20.85,26.43,29.87,14.73,44.62,1024.39,2034.99,3199.00,2914.78,3294.99,599.98,605.08,39.09,0000 0000 0000 0000 000000
2016-10-19 00:48:18,0.00,0.81,0.00,20.83,26.42,29.85,14.83,44.37,1024.41,2034.99,3199.00,2914.48,3294.97,599.91,605.00,39.14,0000 0000 0000 0000 000000
2016-10-19 00:53:19,0.01,0.81,0.00,20.84,26.42,29.83,14.79,45.22,1024.41,2034.99,3198.96,2914.15,3294.87,600.17,605.17,39.19,0000 0000 0000 0000 000000
2016-10-19 00:58:20,0.01,0.81,0.00,20.85,26.42,29.85,14.76,45.04,1024.42,2034.99,3198.78,2914.02,3294.55,599.99,604.93,39.24,0000 0000 0000 0000 000000
2016-10-19 01:03:21,0.01,0.81,0.00,20.86,26.41,29.85,14.79,44.39,1024.40,2034.99,3198.40,2914.01,3294.17,600.26,605.34,39.29,0000 0000 0000 0000 000000
2016-10-19 01:08:23,0.00,0.81,0.00,20.88,26.41,29.84,14.69,44.27,1024.38,2035.00,3198.16,2914.00,3294.10,599.41,604.28,39.34,0000 0000 0000 0000 000000
2016-10-19 01:13:24,0.00,0.81,0.00,20.88,26.41,29.85,14.78,44.52,1024.35,2035.01,3198.02,2914.00,3294.04,600.08,604.97,39.39,0000 0000 0000 0000 000000
2016-10-19 01:18:25,0.00,0.81,0.00,20.88,26.40,29.85,14.69,44.73,1024.21,2035.00,3197.96,2913.99,3294.00,599.64,604.45,39.44,0000 0000 0000 0000 000000
2016-10-19 01:23:26,0.01,0.81,0.00,20.84,26.40,29.83,14.78,44.46,1024.15,2035.03,3197.69,2913.96,3293.99,599.91,604.84,39.49,0000 0000 0000 0000 000000
2016-10-19 01:28:28,0.02,0.81,0.00,20.88,26.40,29.82,14.71,44.25,1024.17,2035.05,3197.23,2913.80,3293.91,599.93,604.71,39.54,0000 0000 0000 0000 000000
2016-10-19 01:33:29,0.04,0.82,0.00,20.88,26.40,29.84,14.73,44.88,1024.26,2035.04,3196.09,2913.03,3293.06,600.22,605.15,39.59,0000 0000 0000 0000 000000
2016-10-19 01:38:30,0.04,0.82,0.00,20.89,26.40,29.84,14.76,45.20,1024.00,2035.03,3195.45,2912.47,3292.55,600.01,604.69,39.64,0000 0000 0000 0000 000000
2016-10-19 01:43:32,0.01,0.82,0.00,20.90,26.41,29.83,14.79,44.77,1023.99,2035.01,3195.00,2912.03,3292.02,599.83,604.45,39.69,0000 0000 0000 0000 000000
2016-10-19 01:48:33,0.00,0.82,0.00,20.89,26.42,29.83,14.74,44.78,1023.97,2035.02,3194.95,2912.00,3292.00,599.89,604.54,39.74,0000 0000 0000 0000 000000
2016-10-19 01:53:35,0.01,0.82,0.00,20.88,26.42,29.85,14.77,45.06,1023.96,2035.01,3194.42,2912.00,3291.97,600.27,604.96,39.80,0000 0000 0000 0000 000000
2016-10-19 01:58:36,0.01,0.82,0.00,20.92,26.42,29.84,14.72,44.90,1023.94,2035.01,3194.07,2911.95,3291.74,600.02,604.66,39.85,0000 0000 0000 0000 000000
2016-10-19 02:03:37,0.03,0.82,0.00,20.93,26.42,29.81,14.75,45.09,1023.94,2035.03,3193.88,2911.53,3291.14,599.60,604.13,39.90,0000 0000 0000 0000 000000
2016-10-19 02:08:39,0.01,0.82,0.00,20.91,26.42,29.83,14.75,44.85,1023.94,2035.02,3193.43,2911.07,3291.00,599.99,604.46,39.95,0000 0000 0000 0000 000000
2016-10-19 02:13:40,0.00,0.82,0.00,20.94,26.42,29.87,14.75,44.80,1023.94,2035.04,3193.11,2911.01,3291.00,599.97,604.46,40.00,0000 0000 0000 0000 000000
2016-10-19 02:18:42,0.00,0.82,0.00,20.95,26.42,29.86,14.75,44.77,1023.94,2035.02,3192.99,2910.98,3290.85,599.32,603.87,40.05,0000 0000 0000 0000 000000
2016-10-19 02:23:43,0.06,0.82,0.00,20.97,26.42,29.86,14.79,45.31,1023.94,2035.01,3192.10,2910.49,3290.09,600.43,604.90,40.10,0000 0000 0000 0000 000000
2016-10-19 02:28:45,0.09,0.83,0.00,20.99,26.42,29.85,14.83,45.24,1023.94,2035.01,3189.05,2909.05,3288.52,599.95,604.54,40.15,0000 0000 0000 0000 000000
2016-10-19 02:33:46,0.02,0.83,0.00,21.00,26.42,29.86,14.79,45.31,1023.94,2035.03,3188.18,2908.83,3288.02,600.44,604.82,40.20,0000 0000 0000 0000 000000
2016-10-19 02:38:47,0.01,0.83,0.00,21.02,26.42,29.87,14.80,44.86,1023.94,2035.01,3188.00,2908.25,3288.00,599.82,604.06,40.25,0000 0000 0000 0000 000000
2016-10-19 02:43:48,0.01,0.83,0.00,21.02,26.44,29.86,14.83,45.17,1023.94,2035.01,3187.96,2908.02,3287.95,600.00,604.28,40.30,0000 0000 0000 0000 000000
2016-10-19 02:48:49,0.02,0.84,0.00,20.99,26.45,29.87,14.73,44.67,1023.94,2035.02,3187.49,2908.00,3287.56,600.04,604.47,40.35,0000 0000 0000 0000 000000
2016-10-19 02:53:50,0.01,0.84,0.00,21.02,26.45,29.89,14.74,44.63,1023.94,2035.02,3187.03,2908.00,3287.04,599.60,603.93,40.40,0000 0000 0000 0000 000000
2016-10-19 02:58:52,0.02,0.84,0.00,21.03,26.45,29.89,14.75,44.77,1023.94,2035.01,3186.88,2907.60,3286.99,599.52,603.86,40.45,0000 0000 0000 0000 000000
2016-10-19 03:03:53,0.01,0.84,0.00,21.05,26.47,29.89,14.78,44.42,1023.94,2035.01,3186.34,2907.09,3286.91,600.00,604.31,40.50,0000 0000 0000 0000 000000
2016-10-19 03:08:54,0.01,0.84,0.00,21.07,26.47,29.90,14.78,44.49,1023.94,2035.00,3186.02,2907.01,3286.20,600.20,604.41,40.55,0000 0000 0000 0000 000000
2016-10-19 03:13:55,0.01,0.84,0.00,21.08,26.49,29.92,14.76,45.22,1023.94,2035.00,3185.81,2906.97,3286.01,600.48,604.86,40.60,0000 0000 0000 0000 000000
2016-10-19 03:18:57,0.03,0.84,0.00,21.07,26.50,29.95,14.77,45.59,1023.94,2035.00,3185.11,2906.51,3285.94,600.15,604.34,40.65,0000 0000 0000 0000 000000
2016-10-19 03:23:58,0.02,0.84,0.00,21.07,26.50,29.95,14.76,45.24,1023.94,2035.00,3184.99,2906.03,3285.28,600.00,604.09,40.70,0000 0000 0000 0000 000000
2016-10-19 03:28:59,0.00,0.84,0.00,21.08,26.51,29.97,14.83,44.97,1023.94,2035.00,3184.94,2906.00,3285.02,600.06,604.30,40.75,0000 0000 0000 0000 000000
2016-10-19 03:34:00,0.01,0.84,0.00,21.13,26.52,29.98,14.76,44.75,1023.91,2035.00,3184.25,2905.98,3285.00,599.55,603.67,40.80,0000 0000 0000 0000 000000
2016-10-19 03:39:01,0.02,0.84,0.00,21.15,26.52,29.98,14.73,44.42,1023.89,2035.00,3184.00,2905.72,3284.73,599.78,603.87,40.86,0000 0000 0000 0000 000000
2016-10-19 03:44:02,0.03,0.85,0.00,21.17,26.55,30.01,14.78,44.63,1023.92,2035.00,3183.61,2905.08,3284.06,600.41,604.51,40.91,0000 0000 0000 0000 000000
2016-10-19 03:49:04,0.00,0.85,0.00,21.16,26.55,30.00,14.67,44.70,1023.92,2034.99,3183.01,2905.00,3283.99,599.22,603.15,40.96,0000 0000 0000 0000 000000
2016-10-19 03:54:05,0.00,0.85,0.00,21.15,26.56,30.04,14.74,44.42,1023.87,2034.99,3182.88,2904.97,3283.89,600.29,604.36,41.01,0000 0000 0000 0000 000000
2016-10-19 03:59:06,0.04,0.85,0.00,21.16,26.57,30.04,14.72,44.49,1023.79,2034.99,3182.13,2904.50,3283.19,600.04,603.98,41.06,0000 0000 0000 0000 000000
2016-10-19 04:04:07,0.01,0.85,0.00,21.18,26.57,30.05,14.75,44.42,1023.89,2034.99,3182.00,2904.03,3283.00,599.95,603.90,41.11,0000 0000 0000 0000 000000
2016-10-19 04:09:09,0.01,0.85,0.00,21.14,26.58,30.01,14.78,44.32,1023.69,2034.99,3181.43,2904.00,3282.87,600.15,604.13,41.16,0000 0000 0000 0000 000000
2016-10-19 04:14:10,0.08,0.85,0.00,21.15,26.60,30.02,14.73,44.38,1023.79,2034.98,3180.05,2903.14,3281.74,599.90,603.92,41.21,0000 0000 0000 0000 000000
2016-10-19 04:19:11,0.08,0.86,0.00,21.18,26.60,30.04,14.75,44.79,1023.70,2034.98,3178.23,2901.87,3280.46,600.36,604.22,41.26,0000 0000 0000 0000 000000
2016-10-19 04:24:12,0.11,0.86,0.00,21.23,26.61,30.04,14.61,45.23,1023.60,2034.96,3175.96,2900.46,3278.84,599.57,603.25,41.31,0000 0000 0000 0000 000000
2016-10-19 04:29:13,0.08,0.87,0.00,21.24,26.62,30.05,14.75,45.33,1023.71,2034.95,3173.82,2899.17,3277.43,599.76,603.41,41.36,0000 0000 0000 0000 000000
2016-10-19 04:34:15,0.02,0.87,0.00,21.24,26.63,30.09,14.77,44.72,1023.63,2034.95,3173.00,2898.63,3276.94,600.05,603.74,41.41,0000 0000 0000 0000 000000
2016-10-19 04:39:16,0.02,0.87,0.00,21.25,26.65,30.11,14.66,44.67,1023.89,2034.76,3172.29,2898.04,3276.11,599.59,603.35,41.46,0000 0000 0000 0000 000000
2016-10-19 04:44:17,0.06,0.87,0.00,21.28,26.65,30.11,14.72,44.84,1023.84,2034.80,3171.42,2897.49,3275.53,600.09,603.94,41.51,0000 0000 0000 0000 000000
2016-10-19 04:49:18,-0.01,0.87,0.00,21.28,26.67,30.12,14.69,44.33,1023.89,2034.49,3170.41,2897.00,3274.99,599.60,603.46,41.56,0000 0000 0000 0000 000000
2016-10-19 04:54:20,0.02,0.88,0.00,21.33,26.67,30.13,14.74,44.34,1023.90,2034.46,3170.01,2896.63,3274.43,600.32,603.88,41.61,0000 0000 0000 0000 000000
2016-10-19 04:59:21,0.01,0.88,0.00,21.35,26.70,30.14,14.72,44.41,1023.90,2034.22,3169.43,2896.04,3274.01,599.83,603.44,41.66,0000 0000 0000 0000 000000
2016-10-19 05:04:22,0.01,0.88,0.00,21.35,26.70,30.18,14.69,44.97,1023.91,2034.06,3168.93,2895.94,3273.66,600.08,603.54,41.71,0000 0000 0000 0000 000000
2016-10-19 05:09:23,0.04,0.88,0.00,21.34,26.70,30.19,14.73,45.19,1023.89,2034.04,3168.13,2895.24,3273.04,599.53,603.22,41.76,0000 0000 0000 0000 000000
2016-10-19 05:14:25,0.00,0.88,0.00,21.36,26.72,30.20,14.64,44.33,1023.85,2034.03,3167.99,2895.00,3272.96,599.24,602.98,41.81,0000 0000 0000 0000 000000
2016-10-19 05:19:25,0.02,0.88,0.00,21.36,26.72,30.23,14.74,44.47,1023.91,2034.03,3167.34,2894.94,3272.38,600.05,603.76,41.86,0000 0000 0000 0000 000000
2016-10-19 05:24:27,0.04,0.88,0.00,21.36,26.74,30.21,14.79,44.54,1023.83,2034.02,3166.57,2894.20,3271.90,600.35,604.10,41.91,0000 0000 0000 0000 000000
2016-10-19 05:29:28,0.06,0.88,0.00,21.41,26.75,30.22,14.66,44.77,1023.75,2034.03,3165.28,2893.37,3271.03,599.69,602.97,41.97,0000 0000 0000 0000 000000
2016-10-19 05:34:29,0.03,0.89,0.00,21.42,26.76,30.24,14.75,44.37,1023.77,2034.00,3164.26,2892.92,3270.18,599.96,603.28,42.02,0000 0000 0000 0000 000000
2016-10-19 05:39:31,0.05,0.89,0.00,21.44,26.77,30.26,14.84,45.21,1023.91,2034.00,3163.45,2892.13,3269.58,600.73,604.23,42.07,0000 0000 0000 0000 000000
2016-10-19 05:44:32,0.06,0.89,0.00,21.47,26.79,30.28,14.69,44.29,1023.94,2034.00,3162.22,2891.35,3268.67,599.69,603.18,42.12,0000 0000 0000 0000 000000
2016-10-19 05:49:33,0.06,0.89,0.00,21.50,26.80,30.31,14.72,44.77,1023.94,2034.00,3161.03,2890.65,3267.78,600.66,603.99,42.17,0000 0000 0000 0000 000000
2016-10-19 05:54:34,0.07,0.90,0.00,21.52,26.81,30.31,14.69,44.63,1023.94,2033.99,3159.51,2889.61,3266.65,599.53,602.87,42.22,0000 0000 0000 0000 000000
2016-10-19 05:59:35,0.05,0.90,0.00,21.56,26.82,30.35,14.74,45.05,1023.94,2033.98,3158.28,2888.75,3265.70,599.87,603.08,42.27,0000 0000 0000 0000 000000
2016-10-19 06:04:36,0.03,0.90,0.00,21.54,26.84,30.35,14.70,44.33,1023.94,2033.99,3157.21,2888.04,3265.01,600.10,603.39,42.32,0000 0000 0000 0000 000000
2016-10-19 06:09:37,0.05,0.91,0.00,21.52,26.85,30.38,14.81,44.38,1023.94,2033.98,3156.32,2887.60,3264.34,600.21,603.43,42.37,0000 0000 0000 0000 000000
2016-10-19 06:14:39,0.03,0.91,0.00,21.53,26.87,30.38,14.67,44.36,1023.94,2033.97,3155.38,2886.97,3263.74,600.19,603.56,42.42,0000 0000 0000 0000 000000
2016-10-19 06:19:40,0.05,0.91,0.00,21.54,26.87,30.40,14.80,45.15,1023.94,2033.95,3154.29,2886.15,3262.98,600.50,603.81,42.47,0000 0000 0000 0000 000000
2016-10-19 06:24:41,0.04,0.91,0.00,21.56,26.89,30.42,14.65,44.67,1023.94,2033.84,3153.34,2885.54,3262.22,599.63,602.84,42.52,0000 0000 0000 0000 000000
2016-10-19 06:29:42,0.02,0.91,0.00,21.58,26.90,30.42,14.75,44.41,1023.94,2033.72,3152.45,2884.97,3261.66,600.32,603.47,42.57,0000 0000 0000 0000 000000
2016-10-19 06:34:44,0.03,0.92,0.00,21.58,26.91,30.41,14.67,44.42,1023.94,2033.37,3151.37,2884.14,3260.87,599.77,602.97,42.62,0000 0000 0000 0000 000000
2016-10-19 06:39:45,0.05,0.92,0.00,21.60,26.92,30.44,14.74,44.39,1023.94,2033.28,3150.27,2883.46,3260.04,600.16,603.35,42.67,0000 0000 0000 0000 000000
2016-10-19 06:44:46,0.02,0.92,0.00,21.64,26.93,30.42,14.62,44.21,1023.94,2033.22,3149.37,2882.98,3259.38,599.86,602.91,42.72,0000 0000 0000 0000 000000
2016-10-19 06:49:47,0.05,0.92,0.00,21.62,26.95,30.46,14.75,44.84,1023.94,2033.06,3148.31,2882.16,3258.52,600.37,603.64,42.77,0000 0000 0000 0000 000000
2016-10-19 06:54:49,0.05,0.92,0.00,21.63,26.95,30.47,14.69,44.77,1023.95,2033.02,3147.16,2881.38,3257.78,599.61,602.85,42.82,0000 0000 0000 0000 000000
2016-10-19 06:59:50,0.03,0.93,0.00,21.63,26.96,30.46,14.76,44.83,1023.95,2033.02,3146.27,2880.98,3257.04,600.24,603.37,42.87,0000 0000 0000 0000 000000
2016-10-19 07:04:51,0.05,0.93,0.00,21.65,26.97,30.45,14.76,44.34,1023.96,2033.00,3145.36,2880.23,3256.38,600.11,603.11,42.92,0000 0000 0000 0000 000000
2016-10-19 07:09:52,0.03,0.93,0.00,21.68,26.99,30.48,14.69,44.30,1023.94,2033.02,3144.48,2879.84,3255.86,599.79,602.88,42.98,0000 0000 0000 0000 000000
2016-10-19 07:14:54,0.08,0.93,0.00,21.69,27.00,30.50,14.66,44.35,1023.94,2033.00,3143.03,2878.89,3254.75,599.70,602.72,43.03,0000 0000 0000 0000 000000
2016-10-19 07:19:55,0.07,0.94,0.00,21.72,27.01,30.51,14.67,44.34,1023.94,2033.00,3141.43,2877.90,3253.52,599.90,602.84,43.08,0000 0000 0000 0000 000000
2016-10-19 07:24:56,0.06,0.94,0.00,21.72,27.02,30.52,14.72,44.37,1023.94,2033.00,3140.06,2877.05,3252.50,600.21,603.19,43.13,0000 0000 0000 0000 000000
2016-10-19 07:29:58,0.05,0.94,0.00,21.74,27.02,30.49,14.73,44.24,1023.95,2033.00,3138.96,2876.26,3251.78,599.99,602.94,43.18,0000 0000 0000 0000 000000
2016-10-19 07:34:59,0.04,0.95,0.00,21.71,27.04,30.54,14.87,45.48,1023.96,2033.00,3137.88,2875.76,3251.02,600.29,603.12,43.23,0000 0000 0000 0000 000000
2016-10-19 07:40:00,0.05,0.95,0.00,21.72,27.05,30.56,14.64,45.06,1023.96,2033.00,3136.65,2875.03,3250.25,599.83,602.73,43.28,0000 0000 0000 0000 000000
2016-10-19 07:45:02,0.05,0.95,0.00,21.75,27.06,30.56,14.71,44.59,1024.01,2033.00,3135.50,2874.40,3249.34,599.33,602.27,43.33,0000 0000 0000 0000 000000
2016-10-19 07:50:03,0.06,0.95,0.00,21.77,27.07,30.59,14.69,44.33,1023.96,2032.98,3134.29,2873.52,3248.37,600.27,603.01,43.38,0000 0000 0000 0000 000000
2016-10-19 07:55:04,0.07,0.96,0.00,21.78,27.08,30.59,14.62,44.38,1023.96,2032.96,3132.63,2872.43,3247.18,599.60,602.51,43.43,0000 0000 0000 0000 000000
2016-10-19 08:00:06,0.08,0.96,0.00,21.78,27.10,30.63,14.74,44.30,1023.97,2032.94,3130.84,2871.37,3245.91,600.03,602.86,43.48,0000 0000 0000 0000 000000
2016-10-19 08:05:07,0.07,0.97,0.00,21.74,27.10,30.63,14.70,44.37,1024.08,2032.89,3128.98,2870.09,3244.62,599.94,602.83,43.53,0000 0000 0000 0000 000000
2016-10-19 08:10:08,0.10,0.97,0.00,21.77,27.12,30.62,14.71,44.36,1024.19,2032.89,3127.09,2868.84,3243.29,600.11,603.07,43.58,0000 0000 0000 0000 000000
2016-10-19 08:15:09,0.05,0.98,0.00,21.77,27.12,30.63,14.69,44.25,1024.14,2032.81,3125.37,2867.78,3241.99,599.82,602.78,43.63,0000 0000 0000 0000 000000
2016-10-19 08:20:11,0.09,0.98,0.00,21.78,27.14,30.64,14.71,44.26,1024.25,2032.85,3123.80,2866.78,3240.90,600.10,603.15,43.68,0000 0000 0000 0000 000000
2016-10-19 08:25:12,0.05,0.98,0.00,21.83,27.15,30.68,14.78,44.29,1024.20,2032.67,3122.31,2865.81,3239.83,600.42,603.26,43.73,0000 0000 0000 0000 000000
2016-10-19 08:30:13,0.03,0.98,0.00,21.83,27.15,30.65,14.79,45.00,1024.23,2032.45,3120.89,2864.92,3238.86,600.26,603.16,43.78,0000 0000 0000 0000 000000
2016-10-19 08:35:15,0.04,0.99,0.00,21.84,27.16,30.65,14.52,44.90,1024.09,2032.13,3119.52,2864.02,3237.82,599.68,602.45,43.83,0000 0000 0000 0000 000000
2016-10-19 08:40:16,0.08,0.99,0.00,21.83,27.17,30.66,14.60,44.93,1024.15,2032.07,3117.93,2863.00,3236.66,599.16,602.01,43.88,0000 0000 0000 0000 000000
2016-10-19 08:45:17,0.07,0.99,0.00,21.86,27.18,30.68,14.72,44.84,1024.15,2032.03,3116.19,2861.95,3235.47,599.36,602.06,43.93,0000 0000 0000 0000 000000
2016-10-19 08:50:18,0.05,1.00,0.00,21.86,27.20,30.70,14.70,44.25,1024.23,2032.02,3115.06,2861.07,3234.71,599.65,602.33,43.98,0000 0000 0000 0000 000000
2016-10-19 08:55:20,0.04,1.00,0.00,21.81,27.20,30.69,14.75,44.29,1024.22,2032.02,3114.17,2860.66,3234.01,600.33,603.31,44.04,0000 0000 0000 0000 000000
2016-10-19 09:00:20,0.04,1.00,0.00,21.84,27.22,30.69,14.66,44.31,1024.35,2032.02,3113.22,2859.97,3233.38,599.72,602.65,44.09,0000 0000 0000 0000 000000
2016-10-19 09:05:21,0.07,1.00,0.00,21.84,27.22,30.70,14.75,45.31,1024.43,2032.00,3111.79,2859.08,3232.29,600.30,603.36,44.14,0000 0000 0000 0000 000000
2016-10-19 09:10:23,0.05,1.01,0.00,21.84,27.23,30.69,14.68,45.17,1024.43,2032.00,3110.75,2858.21,3231.44,599.92,602.88,44.19,0000 0000 0000 0000 000000
2016-10-19 09:15:24,0.02,1.01,0.00,21.83,27.25,30.72,14.66,44.73,1024.43,2032.00,3109.88,2857.86,3230.87,599.61,602.60,44.24,0000 0000 0000 0000 000000
2016-10-19 09:20:26,0.05,1.01,0.00,21.85,27.25,30.72,14.75,44.64,1024.43,2032.00,3108.86,2857.06,3230.06,600.52,603.51,44.29,0000 0000 0000 0000 000000
2016-10-19 09:25:27,0.06,1.01,0.00,21.85,27.27,30.74,14.72,44.40,1024.43,2032.00,3107.84,2856.32,3229.23,599.98,602.87,44.34,0000 0000 0000 0000 000000
2016-10-19 09:30:28,0.05,1.02,0.00,21.85,27.27,30.74,14.72,44.38,1024.43,2032.00,3106.78,2855.74,3228.49,600.09,603.01,44.39,0000 0000 0000 0000 000000
2016-10-19 09:35:29,0.06,1.02,0.00,21.90,27.28,30.75,14.65,45.12,1024.44,2032.00,3105.47,2854.84,3227.59,600.24,603.20,44.44,0000 0000 0000 0000 000000
2016-10-19 09:40:30,0.06,1.02,0.00,21.90,27.30,30.77,14.69,44.56,1024.44,2031.99,3104.21,2853.97,3226.58,599.84,602.71,44.49,0000 0000 0000 0000 000000
2016-10-19 09:45:32,0.05,1.03,0.00,21.91,27.30,30.79,14.69,44.37,1024.45,2031.99,3102.97,2853.11,3225.79,599.80,602.62,44.54,0000 0000 0000 0000 000000
2016-10-19 09:50:33,0.06,1.03,0.00,21.94,27.32,30.79,14.79,44.54,1024.46,2031.99,3101.84,2852.42,3224.91,600.49,603.22,44.59,0000 0000 0000 0000 000000
2016-10-19 09:55:34,0.07,1.03,0.00,21.95,27.32,30.78,14.67,45.00,1024.45,2031.98,3100.46,2851.51,3223.87,599.52,602.41,44.64,0000 0000 0000 0000 000000
2016-10-19 10:00:36,0.06,1.04,0.00,21.95,27.33,30.80,14.73,44.64,1024.46,2031.93,3098.96,2850.50,3222.79,599.71,602.49,44.69,0000 0000 0000 0000 000000
2016-10-19 10:05:37,0.05,1.04,0.00,21.98,27.35,30.81,14.70,44.36,1024.49,2031.94,3097.72,2849.77,3221.84,599.62,602.31,44.74,0000 0000 0000 0000 000000
2016-10-19 10:10:38,0.05,1.04,0.00,21.97,27.35,30.82,14.71,44.30,1024.53,2031.91,3096.34,2848.91,3220.92,599.93,602.77,44.79,0000 0000 0000 0000 000000
2016-10-19 10:15:39,0.04,1.04,0.00,21.98,27.37,30.83,14.72,44.16,1024.52,2031.81,3095.15,2848.06,3220.06,600.27,602.96,44.84,0000 0000 0000 0000 000000
2016-10-19 10:20:40,0.08,1.05,0.00,21.97,27.37,30.86,14.79,44.38,1024.49,2031.88,3093.84,2847.34,3219.17,600.59,603.33,44.89,0000 0000 0000 0000 000000
2016-10-19 10:25:41,0.01,1.05,0.00,21.98,27.37,30.88,14.68,45.09,1024.47,2031.55,3092.92,2846.49,3218.21,600.01,602.71,44.94,0000 0000 0000 0000 000000
2016-10-19 10:30:43,0.01,1.05,0.00,22.02,27.40,30.88,14.72,44.31,1024.50,2031.38,3092.28,2846.02,3218.00,599.87,602.46,44.99,0000 0000 0000 0000 000000
2016-10-19 10:35:44,0.02,1.05,0.00,22.00,27.40,30.88,14.77,45.04,1024.59,2031.47,3091.77,2845.85,3217.65,600.47,603.28,45.04,0000 0000 0000 0000 000000
2016-10-19 10:40:45,0.04,1.05,0.00,22.03,27.41,30.90,14.69,44.70,1024.77,2031.23,3090.73,2845.04,3216.85,599.17,601.93,45.10,0000 0000 0000 0000 000000
2016-10-19 10:45:47,0.04,1.06,0.00,22.07,27.42,30.92,14.73,44.27,1024.81,2031.12,3089.51,2844.30,3215.92,600.42,603.16,45.15,0000 0000 0000 0000 000000
2016-10-19 10:50:48,0.07,1.06,0.00,22.03,27.42,30.93,14.65,44.28,1024.82,2031.19,3088.33,2843.63,3214.99,599.78,602.52,45.20,0000 0000 0000 0000 000000
2016-10-19 10:55:49,0.05,1.06,0.00,22.02,27.43,30.93,14.82,45.09,1024.87,2031.11,3086.87,2842.65,3214.06,599.99,602.75,45.25,0000 0000 0000 0000 000000
2016-10-19 11:00:51,0.05,1.06,0.00,22.06,27.45,30.93,14.74,44.31,1024.84,2031.09,3085.80,2841.97,3213.18,600.25,603.03,45.30,0000 0000 0000 0000 000000
2016-10-19 11:05:52,0.06,1.07,0.00,22.07,27.45,30.93,14.73,44.25,1024.89,2031.02,3084.46,2841.07,3212.24,600.35,603.14,45.35,0000 0000 0000 0000 000000
2016-10-19 11:10:53,0.06,1.07,0.00,22.10,27.47,30.95,14.71,44.69,1024.90,2031.01,3083.00,2840.06,3211.15,600.18,602.92,45.40,0000 0000 0000 0000 000000
2016-10-19 11:15:54,0.07,1.07,0.00,22.04,27.47,30.93,14.65,45.30,1024.92,2031.00,3081.55,2839.11,3210.14,599.52,602.44,45.45,0000 0000 0000 0000 000000
2016-10-19 11:20:56,0.06,1.08,0.00,22.06,27.48,30.92,14.65,44.52,1024.92,2031.00,3080.36,2838.31,3209.22,599.47,602.28,45.50,0000 0000 0000 0000 000000
2016-10-19 11:25:57,0.05,1.08,0.00,22.09,27.50,30.96,14.66,44.33,1024.92,2031.00,3079.13,2837.58,3208.39,599.77,602.60,45.55,0000 0000 0000 0000 000000
2016-10-19 11:30:58,0.08,1.08,0.00,22.12,27.50,30.95,14.73,45.27,1024.92,2030.99,3077.52,2836.43,3207.24,600.97,603.79,45.60,0000 0000 0000 0000 000000
2016-10-19 11:35:59,0.00,1.09,0.00,22.11,27.51,30.96,14.73,44.45,1024.91,2030.99,3076.97,2836.00,3206.85,599.76,602.51,45.65,0000 0000 0000 0000 000000
2016-10-19 11:41:01,0.04,1.09,0.00,22.11,27.52,31.00,14.69,44.27,1024.91,2030.99,3076.21,2835.78,3206.09,600.15,602.87,45.70,0000 0000 0000 0000 000000
2016-10-19 11:46:02,0.05,1.09,0.00,22.14,27.52,31.00,14.71,44.27,1024.92,2030.99,3075.32,2835.03,3205.53,599.91,602.58,45.75,0000 0000 0000 0000 000000
2016-10-19 11:51:04,0.03,1.09,0.00,22.14,27.54,31.00,14.61,44.36,1024.92,2030.99,3074.50,2834.51,3205.00,600.04,602.80,45.80,0000 0000 0000 0000 000000
2016-10-19 11:56:05,0.02,1.09,0.00,22.15,27.55,31.02,14.72,44.27,1024.92,2030.99,3074.02,2834.04,3204.76,600.14,602.74,45.85,0000 0000 0000 0000 000000
2016-10-19 12:01:06,0.02,1.09,0.00,22.17,27.55,31.02,14.69,44.33,1024.91,2030.99,3073.64,2833.99,3204.11,600.51,603.15,45.90,0000 0000 0000 0000 000000
2016-10-19 12:06:08,0.03,1.10,0.00,22.20,27.55,31.02,14.76,45.27,1024.91,2030.99,3072.92,2833.37,3203.82,600.21,602.63,45.95,0000 0000 0000 0000 000000
2016-10-19 12:11:09,0.03,1.10,0.00,22.18,27.57,31.04,14.62,44.89,1024.92,2030.98,3072.12,2832.97,3203.09,599.53,601.85,46.00,0000 0000 0000 0000 000000
2016-10-19 12:16:10,0.04,1.10,0.00,22.19,27.57,31.05,14.73,44.56,1024.92,2030.95,3071.41,2832.26,3202.66,600.20,602.69,46.06,0000 0000 0000 0000 000000
2016-10-19 12:21:11,0.01,1.10,0.00,22.22,27.58,31.07,14.72,45.09,1024.92,2030.95,3070.79,2831.92,3202.04,600.33,603.00,46.11,0000 0000 0000 0000 000000
2016-10-19 12:26:13,0.06,1.10,0.00,22.19,27.60,31.07,14.78,44.70,1024.92,2030.94,3069.69,2831.10,3201.16,599.91,602.29,46.16,0000 0000 0000 0000 000000
2016-10-19 12:31:14,0.06,1.11,0.00,22.20,27.60,31.08,14.69,44.30,1024.92,2030.94,3068.65,2830.49,3200.44,599.83,602.47,46.21,0000 0000 0000 0000 000000
2016-10-19 12:36:15,0.01,1.11,0.00,22.22,27.61,31.09,14.81,45.46,1024.92,2030.65,3067.62,2829.80,3199.67,601.17,603.71,46.26,0000 0000 0000 0000 000000
2016-10-19 12:41:16,0.00,1.11,0.00,22.24,27.62,31.10,14.69,45.34,1024.94,2030.26,3067.00,2829.05,3199.01,599.98,602.61,46.31,0000 0000 0000 0000 000000
2016-10-19 12:46:17,0.02,1.11,0.00,22.24,27.63,31.12,14.80,44.77,1024.94,2030.29,3066.73,2829.00,3198.99,599.85,602.35,46.36,0000 0000 0000 0000 000000
2016-10-19 12:51:19,-0.00,1.11,0.00,22.26,27.65,31.11,14.71,44.79,1024.93,2030.18,3066.10,2828.96,3198.79,600.26,602.70,46.41,0000 0000 0000 0000 000000
2016-10-19 12:56:20,0.02,1.11,0.00,22.27,27.65,31.10,14.73,44.41,1024.93,2030.09,3065.99,2828.68,3198.21,599.96,602.37,46.46,0000 0000 0000 0000 000000